Flag for Canada Weather past 2 weeks in Whitehorse, Yukon, Canada

Now
55 °F

Passing clouds.


Feels Like: 55 °F
Forecast: 52 / 65 °F
Wind: 2 mph from North

Location: Whitehorse

Current Time: Aug 5, 2015 at 6:04:42 AM

Latest Report: Aug 5, 2015 at 5:00 AM


Visibility: 40 mi

Pressure: 30.01 "Hg (27.80 "Hg at 640m altitude)

Humidity: 67%

Dew point: 45 °F

Location of WhitehorseLocation

Historic Weather in Whitehorse — Graph

°F

Whitehorse temperature yesterday

Maximum temperature yesterday: 79 °F (at 6:00 PM)
Minimum temperature yesterday: 46 °F (at 6:00 AM)
Average temperature yesterday: 63 °F

Past Weeks' High & Low Weather Summary

 TemperatureHumidityPressure
High79 °F (Aug 4, 6:00 PM)100% (Jul 25, 4:00 AM)30.20 "Hg (Jul 25, 4:00 AM)
Low41 °F (Jul 31, 5:00 AM)28% (Aug 4, 7:00 PM)29.61 "Hg (Jul 23, 7:00 PM)
Average56 °F68%29.93 "Hg
* Reported Jul 21 4:00 AM — Aug 5 4:00 AM, Whitehorse, Weather by CustomWeather, © 2015

Note: Actual official high and low records may vary slightly from our data, if they occured in-between our weather recording intervals... More about our weather records

Advertising

Whitehorse weather history for previous 24 hours

 ConditionsComfort  
Time TempWeatherWind HumidityBarometerVisibility
4:00 AM
Wed, Aug 5
55 °FPassing clouds.No wind67%30.02 "Hg15 mi
3:00 AM57 °FPassing clouds.No wind63%30.01 "Hg15 mi
2:00 AM57 °FPassing clouds.No wind63%30.01 "Hg15 mi
1:00 AM61 °FPassing clouds.6 mph55%30.00 "Hg15 mi
12:00 AM63 °FPassing clouds.7 mph52%29.99 "Hg15 mi
11:00 PM
Tue, Aug 4
64 °FScattered clouds.6 mph56%29.98 "Hg15 mi
10:00 PM72 °FScattered clouds.6 mph38%29.97 "Hg40 mi
9:00 PM77 °FScattered clouds.3 mph32%29.97 "Hg40 mi
8:00 PM77 °FScattered clouds.6 mph32%29.97 "Hg40 mi
7:00 PM79 °FScattered clouds.7 mph28%29.98 "Hg40 mi
6:00 PM79 °FScattered clouds.No wind30%29.98 "Hg40 mi
5:00 PM77 °FScattered clouds.7 mph32%29.99 "Hg40 mi
4:00 PM75 °FScattered clouds.3 mph34%30.01 "Hg40 mi
3:00 PM75 °FPassing clouds.8 mph36%30.02 "Hg40 mi
2:00 PM73 °FPassing clouds.5 mph38%30.04 "Hg40 mi
1:00 PM70 °FPassing clouds.7 mph46%30.06 "Hg40 mi
12:00 PM66 °FPassing clouds.6 mph49%30.08 "Hg40 mi
11:00 AM63 °FPassing clouds.7 mph56%30.10 "Hg40 mi
10:00 AM57 °FPassing clouds.6 mph63%30.11 "Hg40 mi
9:00 AM54 °FPassing clouds.5 mph72%30.11 "Hg40 mi
8:00 AM48 °FPassing clouds.5 mph82%30.13 "Hg40 mi
7:00 AM46 °FPassing clouds.5 mph87%30.13 "Hg40 mi
6:00 AM46 °FPassing clouds.6 mph87%30.13 "Hg40 mi
Weather by CustomWeather, © 2015

See weather overviewHow to use our weather pages